Waarnemingen

Advertentie
Mijn weer
Edinburgh/Gogarbank, Groot Brittannië (3166): temperatuur & dauwpunt: 03.04.2020 13:00:00 - 09.04.2020 13:00:00 (BST)Edinburgh/Gogarbank, Groot Brittannië (3166): temperatuur -20cm & temperatuur -100cm: 03.04.2020 13:00:00 - 09.04.2020 13:00:00 (BST)Edinburgh/Gogarbank, Groot Brittannië (3166): windsnelheid & windstoten: 03.04.2020 13:00:00 - 09.04.2020 13:00:00 (BST)Edinburgh/Gogarbank, Groot Brittannië (3166): windrichting: 03.04.2020 13:00:00 - 09.04.2020 13:00:00 (BST)Edinburgh/Gogarbank, Groot Brittannië (3166): luchtdruk: 03.04.2020 13:00:00 - 09.04.2020 13:00:00 (BST)Edinburgh/Gogarbank, Groot Brittannië (3166): zicht: 03.04.2020 13:00:00 - 09.04.2020 13:00:00 (BST)Edinburgh/Gogarbank, Groot Brittannië (3166): Zonneschijnduur: 03.04.2020 13:00:00 - 09.04.2020 13:00:00 (BST)Edinburgh/Gogarbank, Groot Brittannië (3166): neerslag: 03.04.2020 13:00:00 - 09.04.2020 13:00:00 (BST)
Datum & Tijd tt [°C] td [°C] tt -20cm [°C] tt -100cm [°C] ff [km/u] ff [kn] fx [km/u] fx [kn] dd ppp [hPa] vv [km] sd [min] rr [mm]
09.04.2020 13:00:00 - - - - - - - - - - - - -
09.04.2020 12:00:00 9,4 6,2 - - 15 8 - - O 1028,6 40 0 0,0
09.04.2020 11:00:00 8,8 6,0 - - 15 8 - - O 1028,7 26 0 0,0
09.04.2020 10:00:00 7,5 5,8 8,2 7,4 16 9 - - O 1028,6 26 0 0,0
09.04.2020 09:00:00 6,7 5,2 - - 13 7 - - O 1028,5 19 0 0,0
09.04.2020 08:00:00 6,2 4,7 - - 15 8 - - O 1028,1 25 0 0,0
09.04.2020 07:00:00 5,4 5,0 - - 15 8 - - ONO 1027,6 3,8 0 0,2
09.04.2020 06:00:00 5,3 4,7 - - 16 9 - - O 1027,3 3,1 0 0,0
09.04.2020 05:00:00 5,4 4,7 - - 13 7 - - O 1027,2 7 0 0,0
09.04.2020 04:00:00 5,3 4,3 - - 18 10 - - O 1027,1 6 0 0,0
09.04.2020 03:00:00 5,7 4,9 - - 13 7 - - ONO 1027,0 3,2 0 0,0
09.04.2020 02:00:00 6,1 5,2 - - 13 7 - - O 1027,0 17 0 0,0
09.04.2020 01:00:00 6,0 5,6 - - 15 8 - - ONO 1026,8 5 - 0,2
09.04.2020 00:00:00 6,5 5,3 - - 16 9 - - O 1026,7 7 0 0,0
08.04.2020 23:00:00 6,8 5,1 - - 21 11 - - ONO 1026,3 16 0 0,0
08.04.2020 22:00:00 8,2 5,5 - - 22 12 - - NO 1025,6 16 0 0,0
08.04.2020 21:00:00 11,7 8,2 - - 15 8 - - W 1024,3 45 0 0,0
08.04.2020 20:00:00 12,3 8,0 - - 16 9 - - W 1023,6 50 0 0,0
08.04.2020 19:00:00 13,4 7,0 - - 24 13 - - WZW 1023,0 30 0 0,0
08.04.2020 18:00:00 14,0 6,5 - - 24 13 - - WZW 1022,4 45 18 0,0
08.04.2020 17:00:00 15,4 5,7 - - 26 14 - - W 1022,1 30 30 0,0
08.04.2020 16:00:00 16,0 5,3 - - 26 14 - - WZW 1022,1 24 60 0,0
08.04.2020 15:00:00 16,1 5,2 - - 26 14 - - WZW 1022,2 35 60 0,0
08.04.2020 14:00:00 15,8 4,0 - - 28 15 - - WZW 1022,4 20 48 0,0
08.04.2020 13:00:00 15,3 4,7 - - 28 15 - - WZW 1022,6 30 54 0,0
08.04.2020 12:00:00 14,3 5,4 - - 26 14 - - WZW 1023,0 35 60 0,0
08.04.2020 11:00:00 13,2 5,5 - - 21 11 - - ZW 1023,0 30 54 0,0
08.04.2020 10:00:00 11,7 5,5 7,7 7,2 21 11 - - ZW 1023,2 30 54 0,0
08.04.2020 09:00:00 9,7 5,1 - - 15 8 - - WZW 1023,5 30 0 0,0
08.04.2020 08:00:00 8,8 4,7 - - 15 8 - - WZW 1023,5 27 0 0,0
08.04.2020 07:00:00 8,1 4,1 - - 15 8 - - WZW 1023,5 22 0 0,0
08.04.2020 06:00:00 7,7 3,7 - - 15 8 - - ZW 1023,3 25 0 0,0
08.04.2020 05:00:00 7,2 3,2 - - 11 6 - - ZW 1023,7 26 0 0,0
08.04.2020 04:00:00 8,2 3,3 - - 16 9 - - ZW 1023,6 26 0 0,0
08.04.2020 03:00:00 8,6 3,2 - - 22 12 - - ZW 1023,9 27 0 0,0
08.04.2020 02:00:00 7,7 2,8 - - 15 8 - - WZW 1024,4 21 0 0,0
08.04.2020 01:00:00 8,1 2,0 - - 16 9 - - ZW 1024,2 30 - 0,0
08.04.2020 00:00:00 8,6 1,4 - - 22 12 - - ZW 1024,3 40 0 0,0
07.04.2020 23:00:00 7,6 1,8 - - 13 7 - - WZW 1024,4 30 0 0,0
07.04.2020 22:00:00 8,3 1,9 - - 16 9 - - ZW 1024,8 40 0 0,0
07.04.2020 21:00:00 8,7 1,5 - - 8 4 - - ZZW 1025,0 40 0 0,0
07.04.2020 20:00:00 10,3 1,5 - - 11 6 - - ZZW 1024,6 30 18 0,0
07.04.2020 19:00:00 12,1 1,9 - - 21 11 - - ZZW 1024,5 30 60 0,0
07.04.2020 18:00:00 13,4 2,1 - - 22 12 - - ZW 1024,5 19 60 0,0
07.04.2020 17:00:00 14,0 0,9 - - 28 15 - - ZW 1024,9 24 60 0,0
07.04.2020 16:00:00 14,4 3,0 - - 26 14 - - ZW 1025,4 35 48 0,0
07.04.2020 15:00:00 12,9 3,8 - - 22 12 - - ZW 1026,2 30 24 0,0
07.04.2020 14:00:00 12,9 3,9 - - 26 14 - - ZW 1026,6 22 54 0,0
07.04.2020 13:00:00 12,9 3,2 - - 21 11 - - ZZW 1026,8 30 60 0,0
07.04.2020 12:00:00 12,0 3,1 - - 28 15 - - ZW 1027,2 24 60 0,0
07.04.2020 11:00:00 11,1 3,3 - - 21 11 - - ZZW 1027,5 17 54 0,0
07.04.2020 10:00:00 9,9 3,7 7,7 7,2 13 7 - - ZW 1027,4 20 54 0,0
07.04.2020 09:00:00 8,9 3,8 - - 11 6 - - ZW 1027,2 35 60 0,0
07.04.2020 08:00:00 6,9 3,3 - - 11 6 - - ZZW 1026,9 30 42 0,0
07.04.2020 07:00:00 4,6 1,9 - - 8 4 - - ZW 1026,9 28 0 0,0
07.04.2020 06:00:00 5,1 2,4 - - 11 6 - - ZZW 1026,4 30 0 0,0
07.04.2020 05:00:00 5,3 2,0 - - 8 4 - - ZZW 1026,1 40 0 0,0
07.04.2020 04:00:00 5,6 2,0 - - 8 4 - - ZW 1025,7 40 0 0,0
07.04.2020 03:00:00 6,2 2,2 - - 9 5 - - ZZW 1025,0 40 0 0,0
07.04.2020 02:00:00 6,6 2,6 - - 13 7 - - ZW 1024,6 45 0 0,0
07.04.2020 01:00:00 6,0 2,7 - - 13 7 - - WZW 1023,9 30 - 0,0
07.04.2020 00:00:00 5,8 2,3 - - 9 5 - - Z 1023,0 30 0 0,0
06.04.2020 23:00:00 6,9 2,3 - - 11 6 - - ZW 1022,1 30 0 0,0
06.04.2020 22:00:00 7,5 2,2 - - 9 5 - - ZW 1021,3 30 0 0,0
06.04.2020 21:00:00 7,9 1,7 - - 11 6 - - ZW 1020,3 22 0 0,0
06.04.2020 20:00:00 9,8 1,6 - - 13 7 - - WZW 1018,9 27 30 0,0
06.04.2020 19:00:00 11,4 1,4 - - 22 12 - - WZW 1017,5 28 48 0,0
06.04.2020 18:00:00 12,1 1,4 - - 24 13 - - W 1016,1 30 24 0,0
06.04.2020 17:00:00 12,5 1,3 - - 26 14 46 25 W 1015,0 23 30 0,0
06.04.2020 16:00:00 12,7 1,9 - - 29 16 52 28 W 1013,9 30 48 0,0
06.04.2020 15:00:00 12,9 3,3 - - 34 18 54 29 WZW 1012,8 30 54 0,0
06.04.2020 14:00:00 13,0 2,6 - - 31 17 54 29 WZW 1011,5 23 48 0,0
06.04.2020 13:00:00 12,6 4,2 - - 29 16 50 27 WZW 1010,3 28 18 0,0
06.04.2020 12:00:00 11,3 2,5 - - 31 17 55 30 WZW 1009,0 18 6 0,0
06.04.2020 11:00:00 11,5 2,5 - - 35 19 55 30 WZW 1007,5 35 54 0,0
06.04.2020 10:00:00 10,9 3,2 7,7 7,0 34 18 59 32 WZW 1005,9 18 42 0,0
06.04.2020 09:00:00 10,4 5,1 - - 26 14 46 25 ZW 1004,4 30 30 0,0
06.04.2020 08:00:00 9,8 5,9 - - 21 11 - - ZW 1003,2 30 0 0,0
06.04.2020 07:00:00 10,1 6,2 - - 22 12 - - ZW 1001,9 22 0 0,0
06.04.2020 06:00:00 9,9 6,5 - - 18 10 52 28 ZW 1000,8 30 0 0,0
06.04.2020 05:00:00 11,1 7,3 - - 37 20 63 34 ZW 999,5 45 0 0,0
06.04.2020 04:00:00 12,7 8,9 - - 37 20 63 34 ZZW 998,2 50 0 0,0
06.04.2020 03:00:00 13,2 9,3 - - 34 18 57 31 ZZW 997,7 45 0 0,0
06.04.2020 02:00:00 14,3 8,8 - - 29 16 59 32 ZZW 997,7 45 0 0,0
06.04.2020 01:00:00 14,2 8,1 - - 16 9 - - Z 998,8 40 - 0,0
06.04.2020 00:00:00 14,9 7,1 - - 16 9 - - Z 999,2 50 0 0,0
05.04.2020 23:00:00 16,1 5,1 - - 15 8 - - ZZO 1000,1 50 0 0,0
05.04.2020 22:00:00 16,4 4,9 - - 13 7 - - ZO 1000,3 50 0 0,0
05.04.2020 21:00:00 16,6 4,2 - - 11 6 - - ZZO 1000,8 50 0 0,0
05.04.2020 20:00:00 17,1 3,9 - - 11 6 - - ZO 1001,1 50 0 0,0
05.04.2020 19:00:00 18,0 3,6 - - 11 6 - - ZZO 1001,5 50 0 0,0
05.04.2020 18:00:00 19,2 3,6 - - 16 9 - - ZZO 1002,0 45 54 0,0
05.04.2020 17:00:00 19,2 3,0 - - 22 12 - - Z 1002,9 45 18 0,0
05.04.2020 16:00:00 18,7 2,8 - - 21 11 - - ZZO 1003,8 28 36 0,0
05.04.2020 15:00:00 16,9 3,0 - - 18 10 - - ZZO 1005,1 45 0 0,0
05.04.2020 14:00:00 16,5 2,7 - - 16 9 - - ZZO 1005,9 45 6 0,0
05.04.2020 13:00:00 15,1 3,3 - - 15 8 - - ZZO 1007,2 40 0 0,0
05.04.2020 12:00:00 13,8 3,9 - - 8 4 - - Z 1008,3 45 6 0,0
05.04.2020 11:00:00 12,1 4,4 - - 9 5 - - O 1009,1 25 0 0,0
05.04.2020 10:00:00 9,9 3,4 7,0 7,0 15 8 - - OZO 1009,9 28 0 0,0
05.04.2020 09:00:00 8,6 3,0 - - 16 9 - - OZO 1010,8 30 12 0,0
05.04.2020 08:00:00 8,9 3,0 - - 9 5 - - O 1011,3 40 36 0,0
05.04.2020 07:00:00 7,6 2,6 - - 13 7 - - ZO 1011,5 40 0 0,0
05.04.2020 06:00:00 8,7 2,2 - - 9 5 - - NNO 1011,7 45 0 0,0
05.04.2020 05:00:00 9,7 2,6 - - 15 8 50 27 Z 1011,1 45 0 0,0
05.04.2020 04:00:00 10,1 2,8 - - 21 11 - - ZZW 1011,5 40 0 0,0
05.04.2020 03:00:00 9,9 3,9 - - 11 6 - - Z 1012,0 40 0 0,0
05.04.2020 02:00:00 9,7 3,4 - - 21 11 - - ZZW 1012,1 45 0 0,0
05.04.2020 01:00:00 9,4 2,0 - - 9 5 - - ZZW 1013,0 50 - 0,0
05.04.2020 00:00:00 9,6 3,2 - - 15 8 - - ZW 1013,2 45 0 0,0
04.04.2020 23:00:00 9,6 4,3 - - 11 6 - - Z 1013,2 30 0 0,0
04.04.2020 22:00:00 8,6 4,0 - - 2 1 - - Z 1013,4 27 0 0,0
04.04.2020 21:00:00 9,4 3,8 - - 8 4 - - ZZO 1013,7 40 0 0,0
04.04.2020 20:00:00 9,4 3,0 - - 9 5 - - Z 1013,7 50 0 0,0
04.04.2020 19:00:00 9,9 2,9 - - 15 8 - - ZZW 1013,5 50 0 0,0
04.04.2020 18:00:00 10,1 3,2 - - 16 9 - - ZW 1013,7 50 0 0,0
04.04.2020 17:00:00 10,0 3,2 - - 24 13 - - ZZW 1014,0 35 0 0,0
04.04.2020 16:00:00 10,3 3,7 - - 24 13 - - ZW 1014,1 27 0 0,0
04.04.2020 15:00:00 10,5 3,7 - - 24 13 - - ZZW 1014,3 50 0 0,0
04.04.2020 14:00:00 9,7 3,8 - - 26 14 - - ZZW 1014,4 40 0 0,0
04.04.2020 13:00:00 10,0 2,4 - - 22 12 - - ZW 1014,5 50 0 0,0
04.04.2020 12:00:00 9,9 3,3 - - 21 11 - - ZZW 1014,5 30 0 0,0
04.04.2020 11:00:00 9,4 4,4 - - 16 9 - - ZZW 1014,7 45 0 0,0
04.04.2020 10:00:00 8,7 3,4 7,0 7,0 11 6 - - WZW 1014,5 50 6 0,0
04.04.2020 09:00:00 7,7 3,7 - - 15 8 - - ZW 1014,2 45 24 0,0
04.04.2020 08:00:00 6,0 3,1 - - 11 6 - - ZW 1014,3 50 0 0,0
04.04.2020 07:00:00 4,7 2,3 - - 8 4 - - ZZW 1014,0 50 0 0,0
04.04.2020 06:00:00 4,7 2,4 - - 9 5 - - ZW 1013,7 45 0 0,0
04.04.2020 05:00:00 5,5 3,3 - - 13 7 - - ZW 1013,5 35 0 0,0
04.04.2020 04:00:00 6,0 4,0 - - 11 6 - - ZW 1013,7 45 0 0,0
04.04.2020 03:00:00 5,9 3,7 - - 9 5 - - ZW 1013,7 45 0 0,0
04.04.2020 02:00:00 6,1 3,3 - - 11 6 - - ZW 1013,7 50 0 0,0
04.04.2020 01:00:00 5,5 3,1 - - 15 8 - - ZW 1013,7 50 - 0,0
04.04.2020 00:00:00 5,4 3,1 - - 13 7 - - WZW 1013,4 50 0 0,0
03.04.2020 23:00:00 6,0 3,9 - - 16 9 - - ZW 1013,1 50 0 0,0
03.04.2020 22:00:00 6,3 3,9 - - 11 6 - - WZW 1013,1 50 0 0,0
03.04.2020 21:00:00 6,4 4,1 - - 9 5 - - ZW 1013,0 50 0 0,0
03.04.2020 20:00:00 7,2 4,2 - - 13 7 - - WZW 1012,7 50 0 0,0
03.04.2020 19:00:00 7,4 4,4 - - 15 8 - - WZW 1012,8 45 6 0,0
03.04.2020 18:00:00 7,5 4,5 - - 18 10 - - WZW 1012,7 45 0 0,0
03.04.2020 17:00:00 7,7 3,9 - - 21 11 - - WZW 1012,6 29 0 0,0
03.04.2020 16:00:00 7,6 3,9 - - 16 9 - - WZW 1012,6 30 6 0,0
03.04.2020 15:00:00 8,5 2,0 - - 18 10 - - W 1012,8 50 0 0,0
03.04.2020 14:00:00 7,6 0,6 - - 21 11 - - W 1012,9 45 0 0,0
03.04.2020 13:00:00 7,2 0,6 - - 21 11 - - W 1013,0 35 0 0,0

tt = temperatuur
td = dauwpunt
tt -20cm = temperatuur -20cm
tt -100cm = temperatuur -100cm
ff = windsnelheid
fx = windstoten
dd = windrichting
ppp = luchtdruk
vv = zicht
sd = Zonneschijnduur
rr = neerslag

Weerstations in de omgeving